Beaufort, NC

7:01 PM EDT on May 20, 2019 (GMT -0400)
Smith

Weather History for KMRH - April, 2019

Change the Weather History Date:

Thursday, April 18, 2019

  Actual Average Record
Temperature  
Mean Temperature 69 °F -  
Max Temperature 77 °F 72 °F 85 °F (1976)
Min Temperature 63 °F 51 °F 35 °F (2001)
Cooling Degree Days 4    
Growing Degree Days 19 (Base 50)    
Moisture  
Dew Point 61 °F    
Average Humidity 73    
Maximum Humidity 84    
Minimum Humidity 62    
Precipitation  
Precipitation 0.00 in - - ()
Sea Level Pressure  
Sea Level Pressure 30.07 in    
Wind  
Wind Speed 10 mph (SSW)    
Max Wind Speed 14 mph    
Max Gust Speed -    
Visibility 10 miles    
Events      
Averages and records for this station are not official NWS values.
T = Trace of Precipitation, MM = Missing Value Source: NWS Daily Summary

Daily Weather History Graph

Daily Weather History Graph

Search for Another Location

Airport or City:

Astronomy

Apr. 18, 2019 Rise Set
Actual Time 6:31 AM EDT 7:41 PM EDT
Civil Twilight 6:05 AM EDT 8:07 PM EDT
Nautical Twilight 5:34 AM EDT 8:38 PM EDT
Astronomical Twilight 5:02 AM EDT 9:10 PM EDT
Moon 6:59 PM EDT (4/18) 6:17 AM EDT (4/18)
Length of Visible Light 14h 01m
Length of Day
13h 09m
Waxing Gibbous, 99% of the Moon is Illuminated
Apr 18
Waxing Gibbous
Apr 19
Full
Apr 26
Last Quarter
May 4
New
May 11
First Quarter

Hourly Weather History & Observations

Time (EDT) Temp. Dew Point Humidity Pressure Visibility Wind Dir Wind Speed Gust Speed Precip Events Conditions
12:58 AM 64.9 °F 57.9 °F 78% 30.10 in 10.0 mi SW 9.2 mph - N/A   Clear
1:58 AM 64.9 °F 57.9 °F 78% 30.09 in 10.0 mi SW 10.4 mph - N/A   Clear
2:58 AM 64.0 °F 59.0 °F 84% 30.07 in 10.0 mi WSW 8.1 mph - N/A   Clear
3:58 AM 64.0 °F 59.0 °F 84% 30.07 in 10.0 mi WSW 9.2 mph - N/A   Clear
4:58 AM 64.9 °F 57.9 °F 78% 30.08 in 10.0 mi WSW 9.2 mph - N/A   Clear
5:58 AM 64.0 °F 57.0 °F 78% 30.08 in 10.0 mi SW 6.9 mph - N/A   Clear
6:58 AM 63.0 °F 55.9 °F 78% 30.09 in 10.0 mi SW 5.8 mph - N/A   Clear
7:58 AM 66.9 °F 57.9 °F 73% 30.10 in 10.0 mi SSW 8.1 mph - N/A   Clear
8:58 AM 70.0 °F 57.9 °F 65% 30.11 in 10.0 mi SSW 6.9 mph - N/A   Clear
9:58 AM 72.0 °F 59.0 °F 64% 30.11 in 10.0 mi SSW 8.1 mph - N/A   Clear
10:58 AM 73.9 °F 60.1 °F 62% 30.12 in 10.0 mi South 9.2 mph - N/A   Mostly Cloudy
11:58 AM 75.0 °F 62.1 °F 64% 30.12 in 10.0 mi South 11.5 mph - N/A   Clear
12:58 PM 72.0 °F 63.0 °F 73% 30.12 in 10.0 mi South 12.7 mph - N/A   Scattered Clouds
1:58 PM 75.0 °F 64.0 °F 69% 30.11 in 10.0 mi South 13.8 mph - N/A   Partly Cloudy
2:58 PM 75.0 °F 63.0 °F 66% 30.10 in 10.0 mi SSW 11.5 mph - N/A   Scattered Clouds
3:58 PM 73.0 °F 63.0 °F 71% 30.07 in 10.0 mi South 12.7 mph - N/A   Scattered Clouds
4:58 PM 73.9 °F 62.1 °F 66% 30.05 in 10.0 mi South 13.8 mph - N/A   Clear
5:58 PM 73.0 °F 63.0 °F 71% 30.03 in 10.0 mi South 11.5 mph - N/A   Clear
6:58 PM 71.1 °F 63.0 °F 75% 30.01 in 10.0 mi South 9.2 mph - N/A   Clear
7:58 PM 70.0 °F 62.1 °F 76% 30.01 in 10.0 mi South 11.5 mph - N/A   Partly Cloudy
8:58 PM 70.0 °F 62.1 °F 76% 30.03 in 10.0 mi South 10.4 mph - N/A   Partly Cloudy
9:58 PM 70.0 °F 62.1 °F 76% 30.02 in 10.0 mi South 11.5 mph - N/A   Clear
10:58 PM 70.0 °F 62.1 °F 76% 30.02 in 10.0 mi South 13.8 mph - N/A   Partly Cloudy
11:58 PM 70.0 °F 62.1 °F 76% 30.01 in 10.0 mi South 13.8 mph - N/A   Clear